Mobridge, SD

10:03 AM CST on December 09, 2016 (GMT -0600)
Mobridge Municipal

Weather History for KMBG - March, 2013

Change the Weather History Date:

Thursday, March 21, 2013

  Actual Average Record
Temperature  
Mean Temperature 19 °F 34 °F  
Max Temperature 30 °F 45 °F 75 °F (1945)
Min Temperature 8 °F 23 °F -8 °F (1913)
Degree Days  
Heating Degree Days 46 31  
Month to date heating degree days 832 743  
Since 1 July heating degree days 6648 6718  
Cooling Degree Days 0 0  
Month to date cooling degree days 0 0  
Year to date cooling degree days 0 0  
Moisture  
Dew Point 6 °F    
Average Humidity 60    
Maximum Humidity 80    
Minimum Humidity 39    
Precipitation  
Precipitation T in 0.04 in 0.38 in (1946)
Month to date precipitation 0.22 0.56  
Year to date precipitation 1.18 1.29  
Snow  
Snow T in - - ()
Month to date snowfall 1.5  
Since 1 July snowfall 25.8  
Snow Depth 0.00 in    
Sea Level Pressure  
Sea Level Pressure 29.98 in    
Wind  
Wind Speed 15 mph (ESE)    
Max Wind Speed 23 mph    
Max Gust Speed 28 mph    
Visibility 10 miles    
Events      
T = Trace of Precipitation, MM = Missing Value Source: NWS Daily Summary

Daily Weather History Graph

Daily Weather History Graph

Search for Another Location

Airport or City:

Trip Planner

Search our weather history database for the weather conditions in past years. The results will help you decide how hot, cold, wet, or windy it might be!

Date:

Astronomy

Mar. 21, 2013 Rise Set
Actual Time 7:42 AM CDT 7:55 PM CDT
Civil Twilight 7:12 AM CDT 8:25 PM CDT
Nautical Twilight 6:37 AM CDT 9:00 PM CDT
Astronomical Twilight 6:02 AM CDT 9:36 PM CDT
Moon 2:13 PM CDT (3/21) 4:19 AM CDT (3/21)
Length of Visible Light 13h 12m
Length of Day
12h 13m
Waxing Gibbous, 69% of the Moon is Illuminated
Mar 21
Waxing Gibbous
Mar 27
Full
Apr 2
Last Quarter
Apr 10
New
Apr 18
First Quarter

Hourly Weather History & Observations

Time (CDT) Temp. Windchill Dew Point Humidity Pressure Visibility Wind Dir Wind Speed Gust Speed Precip Events Conditions
12:52 AM 12.0 °F -1.3 °F 5.0 °F 73% 30.09 in 10.0 mi SE 10.4 mph - N/A   Clear
3:52 AM 10.0 °F -5.9 °F 3.9 °F 76% 30.05 in 10.0 mi ESE 13.8 mph - N/A   Clear
4:52 AM 9.0 °F -6.6 °F 3.0 °F 77% 30.04 in 10.0 mi ESE 12.7 mph - N/A   Mostly Cloudy
5:52 AM 9.0 °F -6.6 °F 1.9 °F 73% 30.03 in 10.0 mi ESE 12.7 mph - N/A   Clear
6:52 AM 9.0 °F -5.9 °F 1.9 °F 73% 30.02 in 10.0 mi ESE 11.5 mph - N/A   Mostly Cloudy
7:52 AM 9.0 °F -9.0 °F -0.0 °F 67% 30.01 in 10.0 mi East 17.3 mph - N/A   Overcast
8:52 AM 12.0 °F -5.1 °F 1.9 °F 64% 30.00 in 10.0 mi ESE 17.3 mph - N/A   Partly Cloudy
9:52 AM 14.0 °F -2.5 °F -0.0 °F 54% 29.99 in 10.0 mi SE 17.3 mph - N/A   Overcast
10:52 AM 15.1 °F -0.1 °F 1.0 °F 54% 30.00 in 10.0 mi ESE 15.0 mph - N/A   Overcast
11:41 AM 17.6 °F 4.3 °F 1.4 °F 49% 29.91 in 10.0 mi ESE 12.7 mph - N/A   Overcast
11:52 AM 17.1 °F 2.0 °F 1.0 °F 50% 30.01 in 10.0 mi SE 16.1 mph - N/A   Overcast
12:32 PM 19.4 °F 6.0 °F 3.2 °F 49% 29.90 in 10.0 mi SE 13.8 mph - N/A   Overcast
12:52 PM 19.9 °F 6.2 °F 3.9 °F 50% 29.99 in 10.0 mi ESE 15.0 mph - N/A   Overcast
1:52 PM 25.0 °F 10.9 °F 6.1 °F 45% 29.96 in 10.0 mi East 19.6 mph - N/A   Overcast
2:52 PM 28.9 °F 15.4 °F 7.0 °F 40% 29.94 in 10.0 mi ESE 21.9 mph - N/A   Clear
3:52 PM 28.9 °F 15.8 °F 9.0 °F 43% 29.93 in 10.0 mi East 20.7 mph - N/A   Mostly Cloudy
4:02 PM 30.2 °F 18.1 °F 10.4 °F 44% 29.85 in 10.0 mi ESE 18.4 mph - N/A   Mostly Cloudy
4:32 PM 26.6 °F 13.4 °F 10.4 °F 51% 29.85 in 10.0 mi East 18.4 mph 26.5 mph N/A   Mostly Cloudy
4:52 PM 27.0 °F 13.5 °F 10.0 °F 49% 29.94 in 10.0 mi ESE 19.6 mph - N/A   Overcast
5:52 PM 27.0 °F 13.9 °F 10.0 °F 49% 29.95 in 10.0 mi ESE 18.4 mph - N/A   Overcast
6:52 PM 23.0 °F 9.2 °F 9.0 °F 55% 29.98 in 10.0 mi ESE 17.3 mph - N/A   Overcast
7:52 PM 21.9 °F 8.7 °F 9.0 °F 58% 29.99 in 10.0 mi ESE 15.0 mph - N/A   Overcast
8:52 PM 21.0 °F 8.1 °F 10.9 °F 65% 30.01 in 10.0 mi East 13.8 mph - N/A   Overcast
9:52 PM 19.9 °F 6.2 °F 12.0 °F 71% 30.02 in 10.0 mi East 15.0 mph - N/A   Overcast
10:52 PM 19.0 °F 7.5 °F 10.9 °F 71% 30.03 in 10.0 mi East 10.4 mph - N/A   Overcast
11:52 PM 18.0 °F 4.8 °F 10.9 °F 74% 30.03 in 10.0 mi ESE 12.7 mph - N/A   Overcast